STARLINK-37057, 68161

Orbit data source: Space-Track

STARLINK-37057, 68161 is a payload satellite owned by SpaceX/Seattle (US) in SSO that was launched on Fri, 13 Mar 2026 UTC via an FALCON 9 launch vehicle from the Air Force Western Test Range (AFWTR). Payload-class satellites include a variety of spacecraft equipped with specific instruments for various scientific and technological missions. These include communications satellites like Starlink; space stations such as the ISS; scientific satellites like the Hubble; Earth observation satellites from companies like Planet Labs, Umbra, and HawkEye 360; GPS; miniature CubeSats for education and research; and military/defense satellites.

Loading next visibility...
Identifier
68161, 2026-049V
Orbit
SSO
Country
Flag of USUS
Related business
Manufacturer
SpaceX/Seattle
Mission
Operational spacecraft
Bus & Motor
STARLINK V2MO, Unknown motor
Mass
575 kg wet, ~530 kg dry
Launch date (UTC)
2026-03-13 (3 months ago)
Launch vehicle
FALCON 9
Launch site
Air Force Western Test Range (AFWTR)
Object type
Payload
Rocket body
Debris
Shape & HBR
Unknown shape, 17.7 m
Radar Cross Section
Large (>1 m²)

Expand to show TLE details & history
Last TLE update: 14 hours ago

TLE from 14 hours ago
0 STARLINK-37057
1 68161U 26049V   26171.32762988  .00029054  00000-0  89806-3 0  9999
2 68161  97.2829 192.5627 0001479  80.1941 279.9469 15.33471425 15374
Epoch: 2026-06-20T07:51Z
TLE epoch observation values (Epoch: 2026-06-20T07:51:47.221Z)
Latitude
-0.00001°
Longitude
166.07211°
Altitude
468.402 km
Speed
7.632 km/s
True Right ascension
12h 50m 15s
True Declination
0° 00' 00"
Sunlit
Object was in daylight at epoch
Visualization orbit readout
Latitude
Unknown
Longitude
Unknown
Altitude
Unknown
Speed
Unknown
Apparent Right ascension
Unknown
Apparent Declination
Unknown
Sunlit
N/A
Visualization observer readout
Local Sidereal Time
08:32:57
Azimuth
Unknown
Elevation
Unknown
Doppler factor
Unknown
Orbital elements
Apogee altitude
463.419 km
Perigee altitude
461.395 km
Semi-major axis
6,840.544 km
Eccentricity
0.00015
Inclination
97.2829°
RAAN
192.5627°
Arg. of periapsis
80.1941°
True anomaly
279.93021°
Mean anomaly
279.9469°
Eccentric anomaly
279.93855°
Mean motion
3.83625 °/min
Orbital period
93.84 mins
BSTAR
0.00089806
Loading maneuver chart data...
Computing Atmospheric mass density...
Loading historical data...
Loading historical data...
Loading historical data...
Loading historical data...
Loading historical data...
Loading historical data...
Loading historical data...

Documentation

Showing up to 5 results
|